Location: Delettes
(50.6178°N, 2.2123°E)
Time: 15:32:11
(UTC+00:00)

Cosmos 2034 Rocket - Pass Details

Date: 27 February 2020
Orbit: 959 x 1000 km, 82.9° (Epoch: 07 April)

Event Time Altitude Azimuth Distance (km) Brightness Sun altitude
Rises 18:27:19 0° 162° (SSE) 3,634 6.8 -10.1°
Reaches altitude 10° 18:29:57 10° 155° (SSE) 2,689 6.1 -10.6°
Maximum altitude 18:35:35 39° 88° (E) 1,397 4.4 -11.4°
Drops below altitude 10° 18:41:14 10° 22° (NNE) 2,706 6.1 -12.3°
Sets 18:43:53 0° 15° (NNE) 3,659 6.9 -12.8°
